Location: Newark
(45.5000°N, 11.4167°E)
Time: 20:52:02
(UTC+00:00)

Vanguard 3 - Pass Details

Date: 24 August 2019
Orbit: 508 x 3262 km, 33.3° (Epoch: 23 October)

Event Time Altitude Azimuth Distance (km) Brightness Sun altitude
Rises 16:13:54 0° 237° (WSW) 4,886 12.2 18.8°
Reaches altitude 10° 16:18:28 10° 225° (SW) 3,371 11.2 18.0°
Maximum altitude 16:24:20 23° 177° (S) 1,920 9.2 17.0°
Drops below altitude 10° 16:28:26 10° 125° (SE) 2,260 9.0 16.3°
Sets 16:30:50 0° 109° (ESE) 2,958 9.5 15.9°
